Flag for Russia Weather past 2 weeks in Nizhny Novgorod, Russia

Now
23 °F

Overcast.


Feels Like: 14 °F
Forecast: 21 / 27 °F
Wind: 8 mph from South

Location: Nizhny Novgorod/Strigino

Current Time: Jan 29, 2015 at 11:52:20 PM

Latest Report: Jan 29, 2015 at 11:00 PM


Visibility: N/A

Pressure: 29.89 "Hg

Humidity: 86%

Dew point: 19 °F

Location of Nizhny NovgorodLocation

Historic Weather in Nizhny Novgorod — Graph

°F

Nizhny Novgorod temperature yesterday

Maximum temperature yesterday: 18 °F (at 1:30 PM)
Minimum temperature yesterday: 12 °F (at 5:00 AM)
Average temperature yesterday: 15 °F

Past Weeks' High & Low Weather Summary

 TemperatureHumidityPressure
High39 °F (Jan 14, 10:00 PM)100% (Jan 16, 10:00 AM)30.66 "Hg (Jan 16, 10:00 AM)
Low-9 °F (Jan 21, 3:00 AM)37% (Jan 26, 12:00 PM)29.71 "Hg (Jan 14, 10:00 PM)
Average19 °F80%30.22 "Hg
* Reported Jan 14 10:00 PM — Jan 29 10:30 PM, Nizhny Novgorod, Weather by CustomWeather, © 2014

Note: Actual official high and low records may vary slightly from our data, if they occured in-between our weather recording intervals... More about our weather records

Advertising

Nizhny Novgorod weather history for previous 24 hours

 ConditionsComfort  
Time TempWeatherWind HumidityBarometerVisibility
10:30 PM
Jan 29
23 °FOvercast.8 mph86%29.89 "HgN/A
10:00 PM23 °FOvercast.10 mph86%29.89 "HgN/A
9:30 PM23 °FOvercast.10 mph86%29.89 "HgN/A
9:00 PM23 °FOvercast.6 mph86%29.89 "HgN/A
8:30 PM23 °FOvercast.8 mph86%29.89 "HgN/A
8:00 PM25 °FOvercast.8 mph80%29.92 "HgN/A
7:30 PM25 °FOvercast.10 mph80%29.92 "HgN/A
7:00 PM25 °FOvercast.10 mph80%29.89 "HgN/A
6:30 PM25 °FMostly cloudy.8 mph80%29.89 "HgN/A
6:00 PM25 °FMostly cloudy.10 mph80%29.89 "HgN/A
5:30 PM25 °FOvercast.8 mph80%29.89 "HgN/A
5:00 PM25 °FPartly sunny.6 mph80%29.89 "HgN/A
4:30 PM23 °FPartly sunny.8 mph86%29.89 "HgN/A
4:00 PM25 °FBroken clouds.10 mph80%29.89 "HgN/A
3:30 PM25 °FBroken clouds.8 mph74%29.89 "HgN/A
3:00 PM27 °FBroken clouds.10 mph74%29.89 "HgN/A
2:30 PM27 °FPartly sunny.10 mph74%29.89 "HgN/A
2:00 PM27 °FPartly sunny.6 mph74%29.89 "HgN/A
1:30 PM25 °FMostly cloudy.10 mph80%29.89 "HgN/A
1:00 PM25 °FMostly cloudy.10 mph80%29.89 "HgN/A
12:30 PM25 °FLight snow. Overcast.8 mph80%29.89 "HgN/A
12:00 PM23 °FLight snow. Overcast.13 mph86%29.89 "Hg4 mi
11:30 AM23 °FLight snow. Overcast.10 mph86%29.89 "Hg4 mi
11:00 AM23 °FLight snow. Overcast.10 mph86%29.89 "Hg5 mi
10:30 AM23 °FLight snow. Overcast.10 mph86%29.89 "Hg4 mi
10:00 AM23 °FLight snow. Low clouds.10 mph86%29.89 "Hg6 mi
9:30 AM23 °FOvercast.10 mph86%29.89 "Hg6 mi
9:00 AM23 °FOvercast.8 mph86%29.89 "HgN/A
8:30 AM23 °FOvercast.8 mph86%29.89 "HgN/A
8:00 AM23 °FLow clouds.3 mph86%29.89 "HgN/A
7:30 AM21 °FLow clouds.8 mph93%29.89 "HgN/A
7:00 AM21 °FLow clouds.8 mph93%29.89 "HgN/A
6:30 AM21 °FOvercast.6 mph93%29.89 "HgN/A
6:00 AM21 °FOvercast.6 mph93%29.89 "HgN/A
5:30 AM21 °FOvercast.6 mph93%29.89 "HgN/A
5:00 AM21 °FLow clouds.3 mph86%29.89 "HgN/A
4:30 AM21 °FLow clouds.6 mph86%29.89 "Hg6 mi
4:00 AM21 °FLow clouds.6 mph86%29.89 "HgN/A
3:30 AM19 °FLight snow. Low clouds.6 mph93%29.89 "Hg6 mi
3:00 AM19 °FLight snow. Overcast.6 mph93%29.89 "Hg6 mi
2:30 AM19 °FLight snow. Overcast.8 mph93%29.89 "Hg3 mi
2:00 AM19 °FLight snow. Overcast.8 mph93%29.92 "Hg4 mi
1:30 AM19 °FLight snow. Overcast.3 mph86%29.92 "Hg4 mi
1:00 AM19 °FLight snow. Overcast.6 mph86%29.92 "Hg4 mi
12:30 AM18 °FLight snow. Overcast.6 mph93%29.92 "HgN/A
12:00 AM18 °FLight snow. Overcast.6 mph86%29.95 "Hg4 mi
11:30 PM
Jan 28
18 °FLight snow. Overcast.6 mph86%29.95 "Hg3 mi
11:00 PM18 °FLight snow. Overcast.3 mph86%29.95 "Hg4 mi
Weather by CustomWeather, © 2014

See weather overviewHow to use our weather pages